 day,  time,  air_temp(C),  RH(%),  ground_temp10cm(C),  ground_temp20cm(C),  ground_temp40cm(C),  precipitation(mm/h),  Solar_Radiation(MJ/m2h),  lack, 
 08/09/01, 01:00,  17.2,  99,  20.0,  20.0,  18.8,   0.0,  0.00, 
 08/09/01, 02:00,  17.4,  99,  19.9,  20.0,  18.8,   0.0,  0.00, 
 08/09/01, 03:00,  17.0,  99,  19.8,  19.9,  18.8,   0.0,  0.00, 
 08/09/01, 04:00,  17.4,  97,  19.7,  19.9,  18.8,   0.0,  0.00, 
 08/09/01, 05:00,  17.0,  98,  19.5,  19.8,  18.9,   0.0,  0.00, 
 08/09/01, 06:00,  15.3,  99,  19.2,  19.8,  18.9,   0.0,  0.00, 
 08/09/01, 07:00,  17.3,  99,  19.0,  19.7,  18.9,   0.0,  0.00, 
 08/09/01, 08:00,  19.6,  93,  19.1,  19.6,  19.2,   0.0,  0.00, 
 08/09/01, 09:00,  20.6,  84,  19.5,  19.6,  19.2,   0.0,  0.00, 
 08/09/01, 10:00,  22.1,  82,  19.7,  19.6,  19.2,   0.0,  0.00, 
 08/09/01, 11:00,  22.7,  84,  20.9,  19.5,  18.9,   0.0,  0.00, 
 08/09/01, 12:00,  22.9,  85,  21.9,  19.7,  19.2,   0.0,  0.00, 
 08/09/01, 13:00,  23.4,  84,  22.7,  19.7,  18.9,   0.0,  0.00, 
 08/09/01, 14:00,  23.2,  87,  23.3,  19.9,  18.9,   0.0,  0.00, 
 08/09/01, 15:00,  21.8,  90,  23.5,  20.1,  19.2,   0.0,  0.00, 
 08/09/01, 16:00,  21.7,  91,  23.4,  20.3,  19.2,   0.0,  0.00, 
 08/09/01, 17:00,  22.4,  85,  23.3,  20.5,  19.2,   0.0,  0.00, 
 08/09/01, 18:00,  21.0,  91,  23.2,  20.7,  19.2,   0.0,  0.00, 
 08/09/01, 19:00,  19.8,  97,  22.9,  20.8,  19.3,   0.0,  0.00, 
 08/09/01, 20:00,  19.6,  99,  22.6,  20.9,  19.3,   0.0,  0.00, 
 08/09/01, 21:00,  19.3,  99,  22.3,  20.9,  19.3,   0.0,  0.00, 
 08/09/01, 22:00,  18.9,  99,  22.0,  20.9,  19.3,   0.0,  0.00, 
 08/09/01, 23:00,  18.8,  99,  21.8,  21.0,  19.3,   0.0,  0.00, 
 08/09/02, 00:00,  18.7,  99,  21.6,  20.9,  19.2,   0.0,  0.00, 
 08/09/02, 01:00,  18.5,  99,  21.4,  20.9,  19.2,   0.0,  0.00, 
 08/09/02, 02:00,  18.3,  99,  21.2,  20.9,  19.3,   0.0,  0.00, 
 08/09/02, 03:00,  17.7,  99,  21.1,  20.8,  19.3,   0.0,  0.00, 
 08/09/02, 04:00,  17.9,  99,  20.9,  20.8,  19.3,   0.0,  0.00, 
 08/09/02, 05:00,  16.3,  99,  20.6,  20.7,  19.3,   0.0,  0.00, 
 08/09/02, 06:00,  16.3,  99,  20.3,  20.7,  19.3,   0.0,  0.00, 
 08/09/02, 07:00,  17.4,  99,  20.1,  20.6,  19.6,   0.0,  0.00, 
 08/09/02, 08:00,  19.0,  94,  20.1,  20.5,  19.3,   0.0,  0.00, 
 08/09/02, 09:00,  20.6,  88,  20.2,  20.4,  19.4,   0.0,  0.00, 
 08/09/02, 10:00,  22.3,  87,  20.5,  20.4,  19.4,   0.0,  0.00, 
 08/09/02, 11:00,  22.0,  91,  21.4,  20.3,  19.7,   0.0,  0.00, 
 08/09/02, 12:00,  21.0,  94,  21.9,  20.3,  19.7,   0.0,  0.00, 
 08/09/02, 13:00,  20.2,  99,  22.2,  20.4,  19.7,   0.5,  0.00, 
 08/09/02, 14:00,  20.3,  99,  22.4,  20.5,  19.7,   0.0,  0.00, 
 08/09/02, 15:00,  20.2,  99,  22.4,  20.6,  19.7,   0.0,  0.00, 
 08/09/02, 16:00,  20.0,  96,  22.4,  20.8,  19.7,   0.0,  0.00, 
 08/09/02, 17:00,  19.0,  96,  22.2,  20.8,  19.7,   0.0,  0.00, 
 08/09/02, 18:00,  19.4,  83,  21.9,  20.8,  19.4,   0.0,  0.00, 
 08/09/02, 19:00,  18.2,  92,  21.7,  20.9,  19.7,   0.0,  0.00, 
 08/09/02, 20:00,  19.3,  82,  21.4,  20.9,  19.7,   0.0,  0.00, 
 08/09/02, 21:00,  18.1,  91,  21.0,  20.9,  19.7,   0.0,  0.00, 
 08/09/02, 22:00,  17.7,  95,  20.9,  20.8,  19.7,   0.0,  0.00, 
 08/09/02, 23:00,  17.2,  99,  20.7,  20.8,  19.8,   0.0,  0.00, 
 08/09/03, 00:00,  18.0,  92,  20.5,  20.7,  19.8,   0.0,  0.00, 
 08/09/03, 01:00,  18.1,  92,  20.2,  20.7,  19.7,   0.0,  0.00, 
 08/09/03, 02:00,  18.3,  89,  20.2,  20.6,  19.5,   0.0,  0.00, 
 08/09/03, 03:00,  17.2,  99,  20.1,  20.5,  19.5,   0.0,  0.00, 
 08/09/03, 04:00,  17.1,  99,  20.0,  20.4,  19.5,   0.0,  0.00, 
 08/09/03, 05:00,  16.7,  99,  19.8,  20.4,  19.7,   0.0,  0.00, 
 08/09/03, 06:00,  17.9,  91,  19.7,  20.3,  19.5,   0.0,  0.00, 
 08/09/03, 07:00,  18.3,  94,  19.6,  20.2,  19.5,   0.0,  0.00, 
 08/09/03, 08:00,  18.4,  95,  19.7,  20.2,  19.7,   0.0,  0.00, 
 08/09/03, 09:00,  20.1,  91,  19.9,  20.1,  19.7,   0.0,  0.00, 
 08/09/03, 10:00,  19.8,  94,  20.2,  20.1,  19.8,   0.0,  0.00, 
 08/09/03, 11:00,  19.8,  95,  20.7,  20.1,  19.8,   0.0,  0.00, 
 08/09/03, 12:00,  18.6,  99,  20.8,  20.1,  19.7,   0.5,  0.00, 
 08/09/03, 13:00,  18.7,  99,  20.8,  20.1,  19.5,   0.0,  0.00, 
 08/09/03, 14:00,  18.5,  99,  20.8,  20.2,  19.8,   0.0,  0.00, 
 08/09/03, 15:00,  19.0,  99,  20.9,  20.2,  19.8,   0.5,  0.00, 
 08/09/03, 16:00,  19.1,  99,  21.1,  20.2,  19.5,   0.0,  0.00, 
 08/09/03, 17:00,  18.4,  99,  21.2,  20.3,  19.7,   0.0,  0.00, 
 08/09/03, 18:00,  18.1,  99,  21.0,  20.3,  19.7,   0.0,  0.00, 
 08/09/03, 19:00,  17.8,  99,  20.9,  20.3,  19.5,   0.0,  0.00, 
 08/09/03, 20:00,  17.6,  99,  20.8,  20.4,  19.7,   0.0,  0.00, 
 08/09/03, 21:00,  17.0,  99,  20.6,  20.4,  19.8,   0.0,  0.00, 
 08/09/03, 22:00,  16.9,  99,  20.5,  20.3,  19.5,   0.0,  0.00, 
 08/09/03, 23:00,  16.8,  99,  20.2,  20.3,  19.6,   0.0,  0.00, 
 08/09/04, 00:00,  16.8,  99,  20.1,  20.3,  19.5,   0.0,  0.00, 
 08/09/04, 01:00,  16.6,  99,  19.9,  20.3,  19.5,   0.0,  0.00, 
 08/09/04, 02:00,  16.2,  99,  19.9,  20.2,  19.6,   0.0,  0.00, 
 08/09/04, 03:00,  16.0,  99,  19.7,  20.2,  19.5,   0.5,  0.00, 
 08/09/04, 04:00,  15.9,  99,  19.7,  20.1,  19.5,   0.0,  0.00, 
 08/09/04, 05:00,  15.6,  99,  19.5,  20.1,  19.5,   0.0,  0.00, 
 08/09/04, 06:00,  15.6,  99,  19.4,  20.0,  19.5,   0.0,  0.00, 
 08/09/04, 07:00,  15.8,  99,  19.2,  20.0,  19.5,   0.0,  0.00, 
 08/09/04, 08:00,  16.2,  99,  19.2,  19.9,  19.7,   0.0,  0.00, 
 08/09/04, 09:00,  17.7,  99,  19.5,  19.8,  19.5,   0.0,  0.00, 
 08/09/04, 10:00,  18.0,  99,  19.8,  19.8,  19.7,   0.0,  0.00, 
 08/09/04, 11:00,  19.9,  99,  20.1,  19.8,  19.5,   0.0,  0.00, 
 08/09/04, 12:00,  21.5,  91,  21.4,  19.8,  19.5,   0.0,  0.00, 
 08/09/04, 13:00,  19.6,  99,  21.9,  19.9,  19.8,   0.5,  0.00, 
 08/09/04, 14:00,  19.8,  99,  21.9,  20.0,  19.5,   0.0,  0.00, 
 08/09/04, 15:00,  20.8,  95,  21.9,  20.1,  19.7,   0.0,  0.00, 
 08/09/04, 16:00,  20.2,  99,  22.0,  20.2,  19.4,   0.0,  0.00, 
 08/09/04, 17:00,  20.0,  98,  22.0,  20.4,  19.7,   0.0,  0.00, 
 08/09/04, 18:00,  19.1,  99,  21.8,  20.4,  19.4,   0.0,  0.00, 
 08/09/04, 19:00,  18.9,  99,  21.7,  20.5,  19.7,   0.0,  0.00, 
 08/09/04, 20:00,  18.8,  99,  21.5,  20.6,  19.7,   0.0,  0.00, 
 08/09/04, 21:00,  18.4,  99,  21.2,  20.6,  19.4,   0.5,  0.00, 
 08/09/04, 22:00,  17.9,  99,  21.0,  20.6,  19.6,   0.5,  0.00, 
 08/09/04, 23:00,  17.7,  99,  20.9,  20.6,  19.4,   0.0,  0.00, 
 08/09/05, 00:00,  17.7,  99,  20.8,  20.6,  19.5,   1.0,  0.00, 
 08/09/05, 01:00,  17.6,  99,  20.5,  20.5,  19.5,   2.5,  0.00, 
 08/09/05, 02:00,  17.6,  99,  20.4,  20.5,  19.5,   0.5,  0.00, 
 08/09/05, 03:00,  17.6,  99,  20.2,  20.5,  19.5,   0.5,  0.00, 
 08/09/05, 04:00,  17.6,  99,  20.2,  20.4,  19.5,   1.5,  0.00, 
 08/09/05, 05:00,  17.4,  99,  20.1,  20.4,  19.5,   0.5,  0.00, 
 08/09/05, 06:00,  16.8,  99,  19.9,  20.3,  19.5,   0.0,  0.00, 
 08/09/05, 07:00,  17.2,  99,  19.8,  20.3,  19.5,   0.0,  0.00, 
 08/09/05, 08:00,  17.6,  99,  19.9,  20.2,  19.8,   0.0,  0.00, 
 08/09/05, 09:00,  19.3,  98,  20.0,  20.2,  19.5,   0.0,  0.00, 
 08/09/05, 10:00,  20.7,  94,  20.1,  20.1,  19.5,   0.0,  0.00, 
 08/09/05, 11:00,  20.5,  92,  21.0,  20.1,  19.7,   0.0,  0.00, 
 08/09/05, 12:00,  20.5,  88,  21.8,  20.1,  19.7,   0.0,  0.00, 
 08/09/05, 13:00,  20.4,  88,  22.3,  20.2,  19.7,   0.0,  0.00, 
 08/09/05, 14:00,  20.5,  89,  22.5,  20.3,  19.5,   0.0,  0.00, 
 08/09/05, 15:00,  20.5,  93,  22.6,  20.5,  19.5,   0.0,  0.00, 
 08/09/05, 16:00,  19.7,  98,  22.6,  20.6,  19.7,   0.0,  0.00, 
 08/09/05, 17:00,  19.3,  95,  22.4,  20.7,  19.8,   0.0,  0.00, 
 08/09/05, 18:00,  19.0,  96,  22.2,  20.8,  19.7,   0.0,  0.00, 
 08/09/05, 19:00,  18.5,  99,  21.9,  20.9,  19.8,   0.0,  0.00, 
 08/09/05, 20:00,  18.1,  99,  21.7,  20.9,  19.5,   0.0,  0.00, 
 08/09/05, 21:00,  17.9,  99,  21.5,  20.9,  19.7,   0.0,  0.00, 
 08/09/05, 22:00,  18.0,  99,  21.1,  20.9,  19.8,   0.0,  0.00, 
 08/09/05, 23:00,  18.1,  99,  20.9,  20.9,  19.9,   0.0,  0.00, 
 08/09/06, 00:00,  18.0,  99,  20.9,  20.8,  19.8,   0.0,  0.00, 
 08/09/06, 01:00,  17.7,  99,  20.6,  20.8,  19.6,   0.0,  0.00, 
 08/09/06, 02:00,  17.7,  99,  20.5,  20.7,  19.7,   0.0,  0.00, 
 08/09/06, 03:00,  17.6,  99,  20.5,  20.7,  19.6,   0.0,  0.00, 
 08/09/06, 04:00,  16.9,  99,  20.4,  20.6,  19.6,   0.0,  0.00, 
 08/09/06, 05:00,  16.2,  99,  20.1,  20.5,  19.6,   0.0,  0.00, 
 08/09/06, 06:00,  16.0,  99,  19.9,  20.5,  19.6,   0.0,  0.00, 
 08/09/06, 07:00,  17.3,  99,  19.7,  20.4,  19.8,   0.0,  0.00, 
 08/09/06, 08:00,  18.4,  98,  19.9,  20.4,  19.8,   0.0,  0.00, 
 08/09/06, 09:00,  19.3,  96,  20.0,  20.3,  20.0,   0.0,  0.00, 
 08/09/06, 10:00,  20.2,  88,  20.3,  20.2,  19.8,   0.0,  0.00, 
 08/09/06, 11:00,  21.3,  91,  20.8,  20.2,  19.8,   0.0,  0.00, 
 08/09/06, 12:00,  22.4,  85,  21.7,  20.2,  19.9,   0.0,  0.00, 
 08/09/06, 13:00,  22.5,  83,  22.6,  20.3,  19.8,   0.0,  0.00, 
 08/09/06, 14:00,  23.0,  76,  22.9,  20.4,  19.9,   0.0,  0.00, 
 08/09/06, 15:00,  22.0,  87,  23.2,  20.5,  19.9,   0.0,  0.00, 
 08/09/06, 16:00,  22.3,  80,  23.1,  20.7,  19.9,   0.0,  0.00, 
 08/09/06, 17:00,  20.9,  87,  22.9,  20.9,  19.9,   0.0,  0.00, 
 08/09/06, 18:00,  19.8,  93,  22.8,  21.0,  19.9,   0.0,  0.00, 
 08/09/06, 19:00,  18.6,  99,  22.4,  21.1,  19.9,   0.0,  0.00, 
 08/09/06, 20:00,  18.4,  99,  22.1,  21.1,  19.8,   0.0,  0.00, 
 08/09/06, 21:00,  18.4,  99,  21.8,  21.1,  19.8,   0.0,  0.00, 
 08/09/06, 22:00,  18.1,  99,  21.7,  21.1,  19.8,   0.5,  0.00, 
 08/09/06, 23:00,  17.7,  99,  21.5,  21.1,  20.0,   0.0,  0.00, 
 08/09/07, 00:00,  17.6,  99,  21.1,  21.1,  19.7,   0.0,  0.00, 
 08/09/07, 01:00,  17.3,  99,  21.0,  21.0,  19.7,   0.0,  0.00, 
 08/09/07, 02:00,  17.3,  99,  20.8,  21.0,  19.7,   0.0,  0.00, 
 08/09/07, 03:00,  17.2,  99,  20.7,  20.9,  19.7,   0.0,  0.00, 
 08/09/07, 04:00,  16.9,  99,  20.6,  20.9,  19.7,   0.0,  0.00, 
 08/09/07, 05:00,  16.4,  99,  20.3,  20.8,  19.7,   0.0,  0.00, 
 08/09/07, 06:00,  16.3,  99,  20.1,  20.7,  19.7,   0.5,  0.00, 
 08/09/07, 07:00,  17.1,  99,  20.0,  20.6,  19.7,   0.0,  0.00, 
 08/09/07, 08:00,  17.0,  99,  20.0,  20.6,  20.0,   0.0,  0.00, 
 08/09/07, 09:00,  19.1,  94,  20.1,  20.5,  20.1,   0.0,  0.00, 
 08/09/07, 10:00,  21.8,  87,  20.5,  20.4,  19.8,   0.0,  0.00, 
 08/09/07, 11:00,  21.8,  83,  21.7,  20.4,  20.1,   0.0,  0.00, 
 08/09/07, 12:00,  22.4,  85,  23.0,  20.4,  20.1,   0.0,  0.00, 
 08/09/07, 13:00,  20.7,  86,  23.6,  20.5,  20.1,   0.0,  0.00, 
 08/09/07, 14:00,  20.1,  86,  23.5,  20.7,  20.1,   0.0,  0.00, 
 08/09/07, 15:00,  19.9,  89,  23.6,  20.9,  20.1,   0.0,  0.00, 
 08/09/07, 16:00,  19.0,  95,  23.5,  21.1,  19.7,   0.0,  0.00, 
 08/09/07, 17:00,  19.1,  91,  23.3,  21.2,  19.7,   0.0,  0.00, 
 08/09/07, 18:00,  18.1,  99,  23.0,  21.3,  19.7,   0.0,  0.00, 
 08/09/07, 19:00,  17.4,  99,  22.7,  21.4,  19.7,   0.0,  0.00, 
 08/09/07, 20:00,  17.1,  99,  22.2,  21.4,  19.8,   0.0,  0.00, 
 08/09/07, 21:00,  16.8,  99,  21.9,  21.4,  19.8,   0.0,  0.00, 
 08/09/07, 22:00,  16.8,  99,  21.7,  21.4,  20.1,   0.0,  0.00, 
 08/09/07, 23:00,  16.8,  99,  21.5,  21.3,  20.1,   0.0,  0.00, 
 08/09/08, 00:00,  16.4,  99,  21.2,  21.3,  19.8,   0.0,  0.00, 
 08/09/08, 01:00,  16.6,  99,  21.0,  21.2,  19.8,   0.0,  0.00, 
 08/09/08, 02:00,  16.4,  99,  20.9,  21.2,  19.9,   0.0,  0.00, 
 08/09/08, 03:00,  16.4,  99,  20.7,  21.1,  19.9,   0.0,  0.00, 
 08/09/08, 04:00,  16.3,  99,  20.5,  21.0,  19.9,   0.0,  0.00, 
 08/09/08, 05:00,  16.2,  99,  20.4,  20.9,  19.9,   0.0,  0.00, 
 08/09/08, 06:00,  15.9,  99,  20.2,  20.9,  19.9,   0.0,  0.00, 
 08/09/08, 07:00,  16.0,  99,  20.1,  20.8,  19.9,   0.0,  0.00, 
 08/09/08, 08:00,  15.9,  99,  20.1,  20.7,  20.1,   0.0,  0.00, 
 08/09/08, 09:00,  16.4,  99,  20.0,  20.6,  19.9,   0.0,  0.00, 
 08/09/08, 10:00,  17.5,  92,  20.1,  20.6,  20.1,   0.0,  0.00, 
 08/09/08, 11:00,  17.0,  97,  20.4,  20.5,  20.1,   0.0,  0.00, 
 08/09/08, 12:00,  17.6,  88,  20.8,  20.5,  20.2,   0.0,  0.00, 
 08/09/08, 13:00,  18.7,  80,  21.1,  20.5,  20.2,   0.0,  0.00, 
 08/09/08, 14:00,  19.2,  76,  21.4,  20.5,  20.2,   0.0,  0.00, 
 08/09/08, 15:00,  19.4,  75,  21.6,  20.5,  20.2,   0.0,  0.00, 
 08/09/08, 16:00,  17.7,  77,  21.5,  20.6,  19.9,   0.0,  0.00, 
 08/09/08, 17:00,  16.5,  81,  21.3,  20.6,  19.8,   0.0,  0.00, 
 08/09/08, 18:00,  14.6,  95,  20.9,  20.7,  20.0,   0.0,  0.00, 
 08/09/08, 19:00,  13.9,  90,  20.6,  20.7,  20.1,   0.0,  0.00, 
 08/09/08, 20:00,  11.8,  98,  20.1,  20.7,  20.0,   0.0,  0.00, 
 08/09/08, 21:00,  10.5,  99,  19.7,  20.6,  19.9,   0.0,  0.00, 
 08/09/08, 22:00,  10.1,  99,  19.2,  20.6,  19.7,   0.0,  0.00, 
 08/09/08, 23:00,   9.7,  99,  18.8,  20.4,  20.0,   0.0,  0.00, 
 08/09/09, 00:00,   9.5,  99,  18.4,  20.3,  19.8,   0.0,  0.00, 
 08/09/09, 01:00,   8.9,  99,  18.1,  20.2,  19.8,   0.0,  0.00, 
 08/09/09, 02:00,   8.6,  99,  17.7,  20.0,  19.8,   0.0,  0.00, 
 08/09/09, 03:00,   8.2,  99,  17.4,  19.9,  19.8,   0.0,  0.00, 
 08/09/09, 04:00,   8.5,  99,  17.1,  19.7,  19.8,   0.0,  0.00, 
 08/09/09, 05:00,   8.1,  99,  16.8,  19.6,  19.8,   0.0,  0.00, 
 08/09/09, 06:00,   7.6,  99,  16.5,  19.4,  19.8,   0.0,  0.00, 
 08/09/09, 07:00,   9.5,  99,  16.3,  19.3,  19.7,   0.0,  0.00, 
 08/09/09, 08:00,  11.1,  95,  16.2,  19.1,  19.9,   0.0,  0.00, 
 08/09/09, 09:00,  13.2,  86,  16.3,  18.8,  19.9,   0.0,  0.00, 
 08/09/09, 10:00,  15.8,  81,  16.4,  18.7,  19.7,   0.0,  0.00, 
 08/09/09, 11:00,  17.3,  77,  17.7,  18.7,  19.9,   0.0,  0.00, 
 08/09/09, 12:00,  18.8,  75,  19.3,  18.6,  19.6,   0.0,  0.00, 
 08/09/09, 13:00,  19.1,  72,  21.0,  18.7,  19.8,   0.0,  0.00, 
 08/09/09, 14:00,  20.6,  72,  21.8,  18.8,  19.6,   0.0,  0.00, 
 08/09/09, 15:00,  20.2,  72,  21.7,  19.1,  19.5,   0.0,  0.00, 
 08/09/09, 16:00,  19.2,  71,  21.4,  19.4,  19.7,   0.0,  0.00, 
 08/09/09, 17:00,  18.2,  74,  21.0,  19.6,  19.6,   0.0,  0.00, 
 08/09/09, 18:00,  16.7,  85,  20.7,  19.7,  19.7,   0.0,  0.00, 
 08/09/09, 19:00,  14.4,  97,  20.2,  19.8,  19.7,   0.0,  0.00, 
 08/09/09, 20:00,  14.0,  95,  19.8,  19.8,  19.6,   0.0,  0.00, 
 08/09/09, 21:00,  14.3,  88,  19.5,  19.9,  19.7,   0.0,  0.00, 
 08/09/09, 22:00,  13.4,  90,  19.0,  19.8,  19.6,   0.0,  0.00, 
 08/09/09, 23:00,  13.0,  90,  18.7,  19.8,  19.4,   0.0,  0.00, 
 08/09/10, 00:00,  14.1,  84,  18.3,  19.7,  19.4,   0.0,  0.00, 
 08/09/10, 01:00,  11.4,  99,  18.0,  19.6,  19.4,   0.0,  0.00, 
 08/09/10, 02:00,  11.4,  99,  17.7,  19.5,  19.5,   0.0,  0.00, 
 08/09/10, 03:00,  11.6,  99,  17.5,  19.4,  19.4,   0.0,  0.00, 
 08/09/10, 04:00,  10.5,  99,  17.3,  19.3,  19.4,   0.0,  0.00, 
 08/09/10, 05:00,  10.9,  99,  17.1,  19.1,  19.4,   0.0,  0.00, 
 08/09/10, 06:00,  11.3,  99,  16.9,  18.9,  19.4,   0.0,  0.00, 
 08/09/10, 07:00,  13.1,  99,  16.8,  18.8,  19.4,   0.0,  0.00, 
 08/09/10, 08:00,  14.6,  91,  16.7,  18.8,  19.5,   0.0,  0.00, 
 08/09/10, 09:00,  15.6,  91,  16.9,  18.7,  19.3,   0.0,  0.00, 
 08/09/10, 10:00,  17.9,  85,  17.1,  18.6,  19.6,   0.0,  0.00, 
 08/09/10, 11:00,  20.3,  76,  18.3,  18.5,  19.5,   0.0,  0.00, 
 08/09/10, 12:00,  20.6,  70,  20.1,  18.5,  19.6,   0.0,  0.00, 
 08/09/10, 13:00,  21.2,  65,  21.7,  18.6,  19.6,   0.0,  0.00, 
 08/09/10, 14:00,  22.1,  65,  22.6,  18.8,  19.2,   0.0,  0.00, 
 08/09/10, 15:00,  22.1,  72,  22.3,  19.1,  19.2,   0.0,  0.00, 
 08/09/10, 16:00,  21.4,  72,  22.0,  19.4,  19.2,   0.0,  0.00, 
 08/09/10, 17:00,  19.9,  81,  21.9,  19.6,  19.4,   0.0,  0.00, 
 08/09/10, 18:00,  18.2,  86,  21.7,  19.8,  19.5,   0.0,  0.00, 
 08/09/10, 19:00,  16.5,  95,  21.2,  19.9,  19.0,   0.0,  0.00, 
 08/09/10, 20:00,  15.7,  97,  20.9,  20.0,  19.0,   0.0,  0.00, 
 08/09/10, 21:00,  15.6,  95,  20.3,  20.1,  19.3,   0.0,  0.00, 
 08/09/10, 22:00,  14.2,  99,  20.0,  20.1,  19.3,   0.0,  0.00, 
 08/09/10, 23:00,  14.5,  99,  19.7,  20.0,  19.3,   0.0,  0.00, 
 08/09/11, 00:00,  14.1,  99,  19.4,  20.0,  19.2,   0.0,  0.00, 
 08/09/11, 01:00,  14.2,  99,  19.1,  19.9,  19.2,   0.0,  0.00, 
 08/09/11, 02:00,  14.0,  99,  18.9,  19.8,  19.2,   0.0,  0.00, 
 08/09/11, 03:00,  13.0,  99,  18.7,  19.7,  19.2,   0.0,  0.00, 
 08/09/11, 04:00,  13.4,  96,  18.5,  19.6,  19.4,   0.0,  0.00, 
 08/09/11, 05:00,  12.4,  97,  18.2,  19.6,  19.5,   0.0,  0.00, 
 08/09/11, 06:00,  13.5,  89,  17.9,  19.5,  19.2,   0.0,  0.00, 
 08/09/11, 07:00,  13.8,  92,  17.6,  19.4,  19.4,   0.0,  0.00, 
 08/09/11, 08:00,  15.6,  80,  17.5,  19.3,  19.4,   0.0,  0.00, 
 08/09/11, 09:00,  17.0,  77,  17.5,  19.2,  19.4,   0.0,  0.00, 
 08/09/11, 10:00,  17.8,  83,  17.7,  19.1,  19.5,   0.0,  0.00, 
 08/09/11, 11:00,  19.7,  79,  18.9,  19.0,  19.5,   0.0,  0.00, 
 08/09/11, 12:00,  20.1,  71,  20.5,  18.9,  19.3,   0.0,  0.00, 
 08/09/11, 13:00,  21.4,  71,  21.7,  19.0,  19.4,   0.0,  0.00, 
 08/09/11, 14:00,  22.3,  68,  22.6,  19.2,  19.5,   0.0,  0.00, 
 08/09/11, 15:00,  20.6,  74,  22.5,  19.5,  19.5,   0.0,  0.00, 
 08/09/11, 16:00,  20.3,  76,  22.1,  19.7,  19.3,   0.0,  0.00, 
 08/09/11, 17:00,  18.7,  85,  21.9,  19.9,  19.3,   0.0,  0.00, 
 08/09/11, 18:00,  17.4,  90,  21.6,  20.0,  19.3,   0.0,  0.00, 
 08/09/11, 19:00,  16.0,  96,  21.1,  20.1,  19.0,   0.0,  0.00, 
 08/09/11, 20:00,  15.2,  98,  20.8,  20.2,  19.1,   0.0,  0.00, 
 08/09/11, 21:00,  13.7,  99,  20.2,  20.2,  19.3,   0.0,  0.00, 
 08/09/11, 22:00,  15.0,  99,  19.9,  20.2,  19.1,   0.0,  0.00, 
 08/09/11, 23:00,  13.3,  99,  19.6,  20.1,  19.1,   0.0,  0.00, 
 08/09/12, 00:00,  13.3,  99,  19.1,  20.0,  19.1,   0.0,  0.00, 
 08/09/12, 01:00,  13.1,  99,  18.8,  20.0,  19.2,   0.0,  0.00, 
 08/09/12, 02:00,  12.4,  99,  18.5,  19.9,  19.2,   0.0,  0.00, 
 08/09/12, 03:00,  13.8,  94,  18.2,  19.8,  19.2,   0.0,  0.00, 
 08/09/12, 04:00,  13.8,  91,  18.0,  19.6,  19.2,   0.0,  0.00, 
 08/09/12, 05:00,  11.7,  99,  17.7,  19.5,  19.3,   0.0,  0.00, 
 08/09/12, 06:00,  12.0,  99,  17.5,  19.4,  19.3,   0.0,  0.00, 
 08/09/12, 07:00,  15.6,  76,  17.3,  19.3,  19.4,   0.0,  0.00, 
 08/09/12, 08:00,  14.5,  89,  17.2,  19.1,  19.2,   0.0,  0.00, 
 08/09/12, 09:00,  16.3,  87,  17.3,  18.9,  19.2,   0.0,  0.00, 
 08/09/12, 10:00,  18.1,  83,  17.5,  18.8,  19.2,   0.0,  0.00, 
 08/09/12, 11:00,  19.6,  81,  18.7,  18.9,  19.2,   0.0,  0.00, 
 08/09/12, 12:00,  21.4,  68,  20.4,  18.8,  19.5,   0.0,  0.00, 
 08/09/12, 13:00,  21.8,  62,  21.9,  18.9,  19.5,   0.0,  0.00, 
 08/09/12, 14:00,  21.8,  59,  22.8,  19.1,  19.3,   0.0,  0.00, 
 08/09/12, 15:00,  20.7,  60,  22.4,  19.4,  19.0,   0.0,  0.00, 
 08/09/12, 16:00,  19.7,  60,  22.1,  19.7,  19.3,   0.0,  0.00, 
 08/09/12, 17:00,  19.4,  55,  21.7,  19.8,  19.3,   0.0,  0.00, 
 08/09/12, 18:00,  16.6,  81,  21.3,  20.0,  19.3,   0.0,  0.00, 
 08/09/12, 19:00,  15.3,  87,  20.7,  20.1,  19.3,   0.0,  0.00, 
 08/09/12, 20:00,  15.4,  80,  20.4,  20.1,  19.3,   0.0,  0.00, 
 08/09/12, 21:00,  13.7,  92,  20.0,  20.1,  19.0,   0.0,  0.00, 
 08/09/12, 22:00,  14.2,  97,  19.6,  20.0,  19.0,   0.0,  0.00, 
 08/09/12, 23:00,  13.3,  96,  19.2,  20.0,  19.3,   0.0,  0.00, 
 08/09/13, 00:00,  14.3,  94,  18.9,  19.9,  19.1,   0.0,  0.00, 
 08/09/13, 01:00,  13.7,  97,  18.6,  19.8,  19.1,   0.0,  0.00, 
 08/09/13, 02:00,  14.2,  95,  18.4,  19.7,  19.1,   0.0,  0.00, 
 08/09/13, 03:00,  16.2,  77,  18.2,  19.6,  19.2,   0.0,  0.00, 
 08/09/13, 04:00,  14.5,  93,  18.2,  19.5,  19.1,   0.0,  0.00, 
 08/09/13, 05:00,  14.5,  92,  18.1,  19.4,  19.0,   0.0,  0.00, 
 08/09/13, 06:00,  14.9,  96,  18.0,  19.3,  19.0,   0.0,  0.00, 
 08/09/13, 07:00,  14.9,  99,  17.9,  19.2,  19.1,   0.0,  0.00, 
 08/09/13, 08:00,  15.5,  99,  17.9,  19.2,  19.3,   0.0,  0.00, 
 08/09/13, 09:00,  15.1,  99,  18.0,  19.1,  19.3,   1.0,  0.00, 
 08/09/13, 10:00,  16.1,  99,  18.1,  19.0,  19.3,   1.0,  0.00, 
 08/09/13, 11:00,  16.3,  99,  18.4,  19.0,  19.3,   0.0,  0.00, 
 08/09/13, 12:00,  16.6,  99,  18.7,  19.0,  19.3,   0.5,  0.00, 
 08/09/13, 13:00,  20.6,  91,  19.1,  18.8,  19.3,   0.0,  0.00, 
 08/09/13, 14:00,  20.5,  85,  19.9,  19.0,  19.1,   0.0,  0.00, 
 08/09/13, 15:00,  21.5,  80,  20.3,  19.0,  19.3,   0.0,  0.00, 
 08/09/13, 16:00,  19.7,  87,  20.5,  19.1,  19.3,   0.0,  0.00, 
 08/09/13, 17:00,  18.9,  92,  20.6,  19.3,  19.2,   0.0,  0.00, 
 08/09/13, 18:00,  16.7,  99,  20.5,  19.4,  19.2,   2.5,  0.00, 
 08/09/13, 19:00,  16.1,  99,  20.1,  19.5,  18.9,   0.0,  0.00, 
 08/09/13, 20:00,  16.0,  99,  19.8,  19.5,  19.0,   0.0,  0.00, 
 08/09/13, 21:00,  14.9,  99,  19.6,  19.5,  19.0,   0.0,  0.00, 
 08/09/13, 22:00,  15.4,  99,  19.4,  19.6,  19.2,   0.0,  0.00, 
 08/09/13, 23:00,  15.4,  99,  19.1,  19.5,  18.9,   0.0,  0.00, 
 08/09/14, 00:00,  15.3,  99,  18.9,  19.5,  19.0,   0.0,  0.00, 
 08/09/14, 01:00,  15.0,  99,  18.8,  19.4,  19.0,   0.0,  0.00, 
 08/09/14, 02:00,  14.5,  99,  18.6,  19.4,  19.0,   0.0,  0.00, 
 08/09/14, 03:00,  14.4,  99,  18.5,  19.3,  18.9,   0.0,  0.00, 
 08/09/14, 04:00,  14.1,  99,  18.3,  19.3,  18.9,   0.0,  0.00, 
 08/09/14, 05:00,  14.2,  99,  18.2,  19.2,  18.9,   0.0,  0.00, 
 08/09/14, 06:00,  14.5,  99,  18.0,  19.2,  18.9,   0.0,  0.00, 
 08/09/14, 07:00,  14.7,  99,  17.9,  19.1,  18.9,   0.0,  0.00, 
 08/09/14, 08:00,  15.1,  99,  18.0,  19.0,  19.2,   0.0,  0.00, 
 08/09/14, 09:00,  15.5,  99,  18.1,  19.0,  19.2,   0.0,  0.00, 
 08/09/14, 10:00,  15.8,  99,  18.4,  18.8,  19.2,   0.0,  0.00, 
 08/09/14, 11:00,  16.9,  99,  18.7,  18.9,  19.2,   0.0,  0.00, 
 08/09/14, 12:00,  19.1,  80,  19.5,  18.9,  19.2,   0.0,  0.00, 
 08/09/14, 13:00,  20.6,  76,  20.2,  18.9,  19.2,   0.0,  0.00, 
 08/09/14, 14:00,  21.1,  65,  20.9,  19.0,  18.9,   0.0,  0.00, 
 08/09/14, 15:00,  20.7,  61,  21.0,  19.1,  18.8,   0.0,  0.00, 
 08/09/14, 16:00,  18.5,  70,  20.8,  19.3,  18.8,   0.0,  0.00, 
 08/09/14, 17:00,  17.5,  81,  20.5,  19.4,  18.8,   0.0,  0.00, 
 08/09/14, 18:00,  16.0,  90,  20.2,  19.5,  18.8,   0.0,  0.00, 
 08/09/14, 19:00,  14.4,  99,  19.8,  19.6,  18.8,   0.0,  0.00, 
 08/09/14, 20:00,  13.4,  99,  19.5,  19.6,  18.8,   0.0,  0.00, 
 08/09/14, 21:00,  13.4,  99,  19.0,  19.6,  19.1,   0.0,  0.00, 
 08/09/14, 22:00,  13.2,  99,  18.7,  19.5,  19.1,   0.0,  0.00, 
 08/09/14, 23:00,  12.7,  99,  18.5,  19.5,  18.9,   0.0,  0.00, 
 08/09/15, 00:00,  12.7,  99,  18.2,  19.4,  18.9,   0.0,  0.00, 
 08/09/15, 01:00,  12.1,  99,  17.9,  19.3,  18.9,   0.0,  0.00, 
 08/09/15, 02:00,  13.1,  99,  17.7,  19.2,  18.8,   0.0,  0.00, 
 08/09/15, 03:00,  14.0,  99,  17.5,  19.1,  18.8,   0.0,  0.00, 
 08/09/15, 04:00,  13.2,  99,  17.3,  19.0,  19.1,   0.0,  0.00, 
 08/09/15, 05:00,  12.6,  99,  17.1,  18.8,  18.8,   0.0,  0.00, 
 08/09/15, 06:00,  12.1,  99,  17.0,  18.8,  18.9,   0.0,  0.00, 
 08/09/15, 07:00,  13.2,  99,  16.8,  18.7,  18.9,   0.0,  0.00, 
 08/09/15, 08:00,  14.9,  99,  16.8,  18.6,  19.1,   0.0,  0.00, 
 08/09/15, 09:00,  16.8,  91,  17.0,  18.5,  19.1,   0.0,  0.00, 
 08/09/15, 10:00,  16.6,  87,  17.4,  18.4,  18.9,   0.0,  0.00, 
 08/09/15, 11:00,  17.9,  85,  17.9,  18.4,  18.8,   0.0,  0.00, 
 08/09/15, 12:00,  17.8,  89,  18.5,  18.4,  19.1,   0.0,  0.00, 
 08/09/15, 13:00,  17.8,  89,  19.0,  18.4,  18.8,   0.0,  0.00, 
 08/09/15, 14:00,  17.6,  87,  19.3,  18.5,  18.8,   0.0,  0.00, 
 08/09/15, 15:00,  17.1,  84,  19.6,  18.6,  18.7,   0.0,  0.00, 
 08/09/15, 16:00,  16.7,  96,  19.6,  18.7,  19.0,   0.0,  0.00, 
 08/09/15, 17:00,  16.1,  96,  19.5,  18.7,  19.0,   0.0,  0.00, 
 08/09/15, 18:00,  15.6,  99,  19.4,  18.8,  19.0,   0.0,  0.00, 
 08/09/15, 19:00,  15.2,  99,  19.0,  18.9,  19.0,   0.0,  0.00, 
 08/09/15, 20:00,  14.6,  99,  18.8,  18.8,  19.0,   0.0,  0.00, 
 08/09/15, 21:00,  14.4,  95,  18.6,  18.9,  19.0,   0.0,  0.00, 
 08/09/15, 22:00,  13.8,  99,  18.4,  18.8,  18.9,   0.5,  0.00, 
 08/09/15, 23:00,  13.7,  99,  18.2,  18.8,  18.6,   0.0,  0.00, 
 08/09/16, 00:00,  13.0,  99,  18.0,  18.8,  18.7,   0.0,  0.00, 
 08/09/16, 01:00,  13.1,  99,  17.9,  18.7,  18.7,   0.5,  0.00, 